Location: Unspecified
(0.0000°N, 0.0000°E)
Time: 00:23:57
(UTC+00:00)

N. Korean satellite - Visible Passes

Search period start: 28 June 2017 00:00
Search period end: 08 July 2017 00:00
Orbit: 461 x 518 km, 97.2° (Epoch: 26 June)

Date Brightness Start Highest point End Pass type
(mag) Time Alt. Az. Time Alt. Az. Time Alt. Az.
28 Jun 9.8 19:34:58 10° WSW 19:36:01 11° WSW 19:37:02 10° W visible
29 Jun 8.9 19:10:07 10° SSW 19:13:12 25° WSW 19:16:14 10° NW visible
30 Jun 7.2 18:46:40 10° S 18:50:22 60° W 18:53:59 10° NNW visible
03 Jul 9.0 19:12:07 10° SSW 19:15:04 22° WSW 19:17:58 10° NW visible
04 Jul 7.4 18:48:36 10° S 18:52:14 54° WSW 18:55:47 10° NNW visible
07 Jul 9.2 19:14:07 10° SSW 19:16:54 21° WSW 19:19:40 10° NW visible
